Location: Unspecified
(0.0000°N, 0.0000°E)
Time: 11:11:21
(UTC-07:00)

ISS - Visible Passes

Search period start: 16 July 2019 00:00
Search period end: 26 July 2019 00:00
Orbit: 409 x 418 km, 51.6° (Epoch: 17 July)

Date Brightness Start Highest point End Pass type
(mag) Time Alt. Az. Time Alt. Az. Time Alt. Az.
16 Jul -0.8 12:19:13 10° WSW 12:21:45 20° NW 12:24:16 10° N visible
17 Jul -2.6 11:29:16 10° SW 11:32:31 48° NW 11:35:46 10° NNE visible
18 Jul -2.0 22:15:35 10° NNW 22:18:37 35° NE 22:21:41 10° ESE visible
19 Jul -0.5 21:27:23 10° NNE 21:29:22 15° NE 21:31:21 10° E visible
20 Jul -3.3 22:13:29 10° NW 22:16:34 38° SW 22:19:41 10° SSE visible
21 Jul -1.9 21:29:13 23° SE 21:29:13 23° SE 21:30:36 10° SE visible
